[[{"header":{"parameterUnit":"m.s-1","parameterCategory":2,"la1":30.2991,"la2":30.254,"lo1":-89.0895,"lo2":-89.0444,"dy":0.0017,"dx":0.0017,"nx":28,"ny":28,"refTime":"2025-02-02T09:00:00:Z","depth":"0","parameterNumber":2,"parameterNumberName":"U-component_of_CURRENTS"},"data":[0,0,0,0,0,0,0,0,0,0,0,0,0,0,0,0,0,0,0,0,0,0,0,0,0,0,0,0,0,0,0,0,0,0,0,0,0,0,0,0,0,0,0,0,0,0,0,0,0,0,0,0,0,0,0,0,0,0,0.2747,0.2748,0,0.2796,0.2797,0.2797,0.2823,0.2823,0.2823,0.2824,0.2843,0.2844,0.2844,0,0,0,0,0,0,0,0,0,0,0,0,0,0.2692,0.2693,0.2747,0.2748,0.2748,0.2796,0.2797,0.2797,0.2823,0.2823,0.2823,0.2824,0.2843,0.2844,0.2844,0,0,0,0,0,0,0,0,0,0,0,0,0,0.2724,0.2693,0.2747,0.2769,0.2771,0.2796,0.2797,0.2797,0.2823,0.2823,0.2824,0.2824,0.2843,0.2843,0.2844,0.2839,0,0,0.2845,0.2845,0,0,0,0,0,0,0,0,0.2722,0.2725,0.2765,0.2767,0.277,0.2806,0.2785,0.2811,0.2823,0.2801,0.2824,0.2824,0.2829,0.2831,0.2836,0.284,0.2841,0.2845,0.2846,0.2846,0.2846,0,0,0,0,0,0,0,0.272,0.2724,0.2764,0.2766,0.2769,0.2782,0.2787,0.279,0.281,0.2803,0.2805,0.2814,0.283,0.2836,0.2837,0.2841,0.2845,0.2846,0.2846,0.2846,0.2879,0.288,0,0,0,0,0,0,0.2717,0.2721,0.2762,0.2766,0.2749,0.2783,0.2788,0.2792,0.2811,0.2815,0.2814,0.2816,0.2835,0.2836,0.2838,0.2863,0.2846,0.2846,0.2846,0.2879,0.2879,0.288,0,0,0,0,0,0,0.2715,0.272,0.2761,0.2747,0.2753,0.2784,0.2788,0.2793,0.2804,0.282,0.2823,0.2821,0.2835,0.2837,0.2854,0.2863,0.2846,0.2847,0.2878,0.2879,0.288,0.2895,0,0,0,0,0,0,0.2713,0.2719,0.2715,0.2746,0.2754,0.2781,0.2788,0.2794,0.281,0.2812,0.2827,0.2829,0.2836,0.2853,0.2854,0.2863,0.2847,0.2877,0.2878,0.2879,0.2894,0.2896,0.2898,0,0,0,0,0,0.2711,0.2711,0.2715,0.272,0.275,0.2782,0.2787,0.2808,0.281,0.2818,0.2832,0.2829,0.2861,0.2854,0.2855,0.2865,0.2876,0.2878,0.2879,0.2892,0.2896,0.2898,0,0,0,0,0,0,0.2675,0.2715,0.2719,0.2727,0.2754,0.2787,0.2796,0.2808,0.2824,0.2826,0.2835,0.2839,0.2863,0.2858,0.285,0.2878,0.2868,0.287,0.2878,0.2881,0.2884,0.2894,0.2847,0,0,0,0,0,0.2666,0.2685,0.2717,0.2723,0.2736,0.2763,0.2776,0.2794,0.2816,0.2824,0.2834,0.2846,0.2868,0.287,0.2888,0.2893,0.2909,0.2901,0.2903,0.2905,0.2915,0.2945,0.2951,0.2885,0.2884,0.2884,0,0,0.2656,0.2678,0.2688,0.2718,0.2738,0.2766,0.2772,0.2797,0.2819,0.2822,0.2845,0.2859,0.2875,0.2895,0.2903,0.2891,0.2934,0.2907,0.2908,0.2917,0.2947,0.2954,0.296,0.2885,0.2885,0.2885,0,0,0.2664,0.2662,0.2691,0.2711,0.2748,0.2764,0.2772,0.2806,0.2818,0.2841,0.2858,0.2878,0.2894,0.2914,0.2925,0.2947,0.2955,0.2947,0.2956,0.2986,0.2991,0.2997,0.3033,0.3041,0.2937,0.2937,0.2937,0,0.2652,0.2686,0.2702,0.2733,0.275,0.2765,0.2796,0.281,0.2844,0.2853,0.2851,0.2897,0.2908,0.2942,0.2956,0.2954,0.2973,0.2943,0.2989,0.2995,0.3,0.3036,0.3045,0.2938,0.2938,0.2938,0.2938,0,0.2695,0.2711,0.2727,0.2772,0.2787,0.2813,0.2837,0.285,0.2858,0.2873,0.2906,0.2925,0.2948,0.2957,0.2965,0.3006,0.301,0.2997,0.2981,0.3008,0.3044,0.3053,0.2939,0.2939,0.2939,0.2938,0,0,0.2704,0.2752,0.2756,0.277,0.2809,0.2823,0.2852,0.2883,0.2893,0.2917,0.2936,0.2979,0.2979,0.2993,0.3002,0.3027,0.3084,0.3027,0.3028,0.3063,0.3159,0.3079,0.3081,0.3077,0.3079,0.308,0.3172,0,0.2738,0.2788,0.2807,0.284,0.2864,0.2874,0.2893,0.2913,0.2924,0.2939,0.2962,0.2981,0.2993,0.2999,0.3032,0.3067,0.3108,0.3061,0.3128,0.3131,0.3056,0.3088,0.2966,0.3029,0.3181,0.3182,0.3183,0,0.2784,0.2807,0.2847,0.2864,0.2874,0.2889,0.2906,0.2926,0.2948,0.2954,0.2978,0.2987,0.3032,0.303,0.312,0.3088,0.3135,0.3165,0.3168,0.3095,0.3067,0.3027,0.304,0.2863,0.3197,0.3196,0.3195,0,0.2787,0.2831,0.2855,0.2865,0.2892,0.2901,0.291,0.2929,0.2937,0.2958,0.2961,0.3009,0.3021,0.3092,0.314,0.3139,0.3231,0.3231,0.3215,0.321,0.312,0.3103,0.2968,0.3314,0.3314,0.3314,0.3313,0,0.2817,0.2835,0.2851,0.2863,0.2877,0.2891,0.29,0.2917,0.293,0.293,0.2961,0.2967,0.3036,0.3082,0.3149,0.3195,0.3239,0.3231,0.3228,0.312,0.3104,0.2955,0.2916,0.3317,0.3316,0.3316,0.3315,0,0.2828,0.2843,0.2866,0.2881,0.2881,0.2887,0.2891,0.2891,0.2907,0.291,0.2914,0.2945,0.299,0.3058,0.3156,0.3183,0.3136,0.3261,0.3127,0.3106,0.2908,0.2877,0.2721,0.2664,0.3268,0.3266,0.3265,0,0.2843,0.2855,0.2868,0.2863,0.2869,0.2872,0.2867,0.2883,0.2878,0.289,0.2886,0.2919,0.2929,0.3027,0.3075,0.3165,0.3068,0.3097,0.307,0.2878,0.2843,0.2732,0.269,0.2974,0.297,0.2967,0.2965,0,0.2852,0.2853,0.2859,0.2854,0.2845,0.2847,0.2839,0.2835,0.284,0.2836,0.2827,0.2835,0.2888,0.2885,0.2962,0.3007,0.2887,0.3039,0.2876,0.2629,0.2468,0.2417,0.294,0.2939,0.2942,0.2944,0.2945,0.2946,0.2838,0.2841,0.283,0.2825,0.2818,0.2807,0.2784,0.277,0.2755,0.271,0.275,0.2722,0.2711,0.2789,0.2789,0.2646,0.2723,0.2577,0.2572,0.2487,0.2359,0.2819,0.278,0.2781,0.2783,0.2784,0.2785,0,0.2792,0.2792,0.2792,0.2771,0.2749,0.2765,0.2744,0.2698,0.2647,0.2634,0.2603,0.2525,0.2453,0.2421,0.2309,0.2192,0.2132,0.2092,0.1906,0.1909,0.2342,0.2248,0.2045,0.2045,0.2045,0.2045,0.2045,0.2046,0.2758,0.2733,0.274,0.2692,0.2681,0.2631,0.2611,0.2553,0.253,0.2399,0.2321,0.2277,0.2165,0.1944,0.1723,0.1695,0.1547,0.1466,0.1485,0.1757,0.18,0.1841,0.1737,0.143,0.1429,0.0961,0.0957,0.0955]},{"header":{"parameterUnit":"m.s-1","parameterCategory":2,"la1":30.2991,"la2":30.254,"lo1":-89.0895,"lo2":-89.0444,"dy":0.0017,"dx":0.0017,"nx":28,"ny":28,"refTime":"2025-02-02T09:00:00:Z","depth":"0","parameterNumber":3,"parameterNumberName":"V-component_of_CURRENTS"},"data":[0,0,0,0,0,0,0,0,0,0,0,0,0,0,0,0,0,0,0,0,0,0,0,0,0,0,0,0,0,0,0,0,0,0,0,0,0,0,0,0,0,0,0,0,0,0,0,0,0,0,0,0,0,0,0,0,0,0,0.0379,0.038,0,0.0435,0.0435,0.0436,0.0436,0.0436,0.0435,0.0435,0.0426,0.0426,0.0426,0,0,0,0,0,0,0,0,0,0,0,0,0,0.0282,0.0284,0.0379,0.038,0.0381,0.0435,0.0435,0.0436,0.0436,0.0436,0.0435,0.0434,0.0426,0.0426,0.0426,0,0,0,0,0,0,0,0,0,0,0,0,0,0.0328,0.0284,0.0379,0.0389,0.0391,0.0434,0.0435,0.0436,0.0436,0.0436,0.0435,0.0434,0.0426,0.0426,0.0427,0.0445,0,0,0.0428,0.0428,0,0,0,0,0,0,0,0,0.0325,0.0331,0.0387,0.0388,0.039,0.0429,0.0398,0.0436,0.0437,0.0417,0.0435,0.0434,0.0423,0.0424,0.0434,0.0445,0.0444,0.0428,0.0428,0.0428,0.0428,0,0,0,0,0,0,0,0.0322,0.0329,0.0399,0.0388,0.039,0.0394,0.0399,0.0405,0.0421,0.0419,0.0419,0.0429,0.0423,0.0434,0.0434,0.0444,0.0428,0.0428,0.0428,0.0428,0.0457,0.0458,0,0,0,0,0,0,0.032,0.0326,0.0398,0.0401,0.0357,0.0396,0.0402,0.0416,0.0423,0.0424,0.0429,0.0429,0.0433,0.0433,0.0433,0.0461,0.0428,0.0429,0.0429,0.0457,0.0458,0.0458,0,0,0,0,0,0,0.0318,0.0326,0.0395,0.0366,0.0375,0.0399,0.0415,0.0418,0.0431,0.0432,0.0431,0.0439,0.0433,0.0433,0.0447,0.046,0.0429,0.0429,0.0456,0.0457,0.0458,0.0512,0,0,0,0,0,0,0.0315,0.0325,0.0336,0.0366,0.0377,0.043,0.0416,0.0419,0.0438,0.0438,0.044,0.0439,0.0432,0.0447,0.0448,0.046,0.0429,0.0456,0.0457,0.0458,0.051,0.0515,0.0519,0,0,0,0,0,0.0311,0.0337,0.0336,0.0345,0.039,0.0432,0.0438,0.045,0.044,0.0456,0.0454,0.0439,0.0453,0.0448,0.0449,0.0462,0.0455,0.0456,0.0458,0.0508,0.0514,0.0519,0,0,0,0,0,0,0.0305,0.034,0.034,0.0375,0.0402,0.0433,0.0452,0.0455,0.0468,0.0464,0.0454,0.0454,0.0471,0.0458,0.0453,0.0471,0.0448,0.0449,0.0486,0.0492,0.0496,0.0502,0.043,0,0,0,0,0,0.0307,0.0333,0.0364,0.0393,0.0407,0.0427,0.0444,0.0453,0.047,0.0475,0.0474,0.047,0.0477,0.0478,0.0482,0.0497,0.0493,0.0501,0.0506,0.051,0.0514,0.053,0.0537,0.0462,0.0462,0.0462,0,0,0.0315,0.0337,0.0352,0.0393,0.0413,0.0442,0.0436,0.0469,0.0487,0.0471,0.0492,0.0492,0.0486,0.0504,0.0509,0.0495,0.0529,0.0512,0.0515,0.0517,0.0532,0.0539,0.0546,0.0463,0.0463,0.0463,0,0,0.0347,0.036,0.0393,0.0415,0.0449,0.0461,0.047,0.05,0.0506,0.0531,0.0521,0.0532,0.0538,0.0542,0.0542,0.0574,0.0557,0.0566,0.0594,0.0609,0.0616,0.0621,0.0629,0.0635,0.0565,0.0565,0.0565,0,0.0353,0.0392,0.0409,0.0443,0.0459,0.0468,0.0499,0.0516,0.0543,0.055,0.0541,0.0562,0.0558,0.0582,0.0592,0.0587,0.0588,0.0575,0.0617,0.0622,0.0627,0.0634,0.0639,0.0568,0.0567,0.0567,0.0567,0,0.041,0.0433,0.0455,0.0492,0.0514,0.0543,0.0563,0.0579,0.058,0.0592,0.0617,0.062,0.0628,0.0629,0.0622,0.0652,0.0639,0.0626,0.0605,0.0638,0.0642,0.0648,0.0572,0.0571,0.057,0.0569,0,0,0.0438,0.0484,0.0489,0.0499,0.0536,0.0557,0.0588,0.0617,0.0631,0.0652,0.0675,0.0693,0.0689,0.0689,0.0682,0.0696,0.0733,0.0676,0.0675,0.069,0.0764,0.0737,0.0739,0.0727,0.0729,0.0729,0.0755,0,0.0472,0.0519,0.0542,0.0577,0.0595,0.0608,0.0634,0.0658,0.0671,0.0694,0.0706,0.0724,0.0713,0.0716,0.0733,0.0736,0.0748,0.0727,0.0725,0.0725,0.0702,0.0745,0.0739,0.0759,0.076,0.076,0.0761,0,0.0517,0.0537,0.0571,0.0595,0.0606,0.0629,0.0652,0.068,0.0715,0.0726,0.0752,0.0758,0.0791,0.0768,0.0802,0.0789,0.0781,0.0779,0.078,0.0739,0.0707,0.0725,0.0768,0.0694,0.0769,0.0768,0.0767,0,0.0503,0.0553,0.0569,0.058,0.0617,0.063,0.0651,0.0685,0.0705,0.0745,0.0762,0.0799,0.0815,0.0828,0.0831,0.0817,0.0862,0.0838,0.0807,0.0804,0.079,0.0784,0.0766,0.0856,0.0856,0.0856,0.0856,0,0.0515,0.0529,0.056,0.0565,0.0585,0.0618,0.0643,0.0669,0.0711,0.0739,0.0773,0.0802,0.083,0.0856,0.0853,0.0855,0.088,0.0824,0.0815,0.0807,0.0803,0.0729,0.0686,0.0857,0.0857,0.0856,0.0856,0,0.0491,0.0514,0.0529,0.0563,0.0574,0.0584,0.063,0.0651,0.0695,0.0733,0.0747,0.081,0.0855,0.0878,0.0902,0.0876,0.0848,0.0867,0.0854,0.0843,0.073,0.069,0.0695,0.067,0.0839,0.0839,0.0839,0,0.048,0.0486,0.0512,0.0519,0.0531,0.0556,0.0576,0.0629,0.0655,0.0736,0.0754,0.0817,0.0874,0.0913,0.0894,0.0898,0.0844,0.0849,0.0817,0.0733,0.0682,0.0681,0.0659,0.0824,0.0823,0.0823,0.0822,0,0.0456,0.0461,0.047,0.0482,0.0498,0.0524,0.0559,0.058,0.0647,0.0695,0.0769,0.083,0.0886,0.0923,0.0918,0.0887,0.0798,0.0839,0.0765,0.0682,0.0668,0.0636,0.0789,0.0819,0.0819,0.082,0.082,0.082,0.0428,0.0425,0.0435,0.0446,0.0467,0.0494,0.0517,0.0569,0.0623,0.0722,0.0771,0.0914,0.096,0.0975,0.088,0.0742,0.0769,0.0698,0.0663,0.0674,0.0632,0.0769,0.0775,0.0775,0.0775,0.0775,0.0775,0,0.0391,0.0395,0.0404,0.0419,0.0435,0.0459,0.0508,0.055,0.0617,0.076,0.0847,0.1042,0.0993,0.0944,0.0781,0.0618,0.0569,0.0531,0.0524,0.0515,0.0649,0.0626,0.0584,0.0584,0.0584,0.0584,0.0584,0.0584,0.037,0.036,0.037,0.0384,0.0402,0.0434,0.0463,0.0546,0.0665,0.0883,0.1076,0.1218,0.132,0.0898,0.0596,0.048,0.0373,0.0354,0.0314,0.0382,0.0395,0.0407,0.0376,0.0282,0.0281,0.0211,0.0209,0.0209]}],[{"header":{"parameterUnit":"m.s-1","parameterCategory":2,"la1":30.2991,"la2":30.254,"lo1":-89.0895,"lo2":-89.0444,"dy":0.0017,"dx":0.0017,"nx":28,"ny":28,"refTime":"2025-02-02T09:00:00:Z","depth":"2","parameterNumber":2,"parameterNumberName":"U-component_of_CURRENTS"},"data":[0,0,0,0,0,0,0,0,0,0,0,0,0,0,0,0,0,0,0,0,0,0,0,0,0,0,0,0,0,0,0,0,0,0,0,0,0,0,0,0,0,0,0,0,0,0,0,0,0,0,0,0,0,0,0,0,0,0,0.1053,0.1053,0,0.1068,0.1068,0.1068,0.1079,0.1079,0.1079,0.108,0.1089,0.1088,0.1088,0,0,0,0,0,0,0,0,0,0,0,0,0,0.1023,0.1024,0.1052,0.1053,0.1053,0.1068,0.1068,0.1068,0.1079,0.1079,0.1079,0.108,0.1089,0.1089,0.1088,0,0,0,0,0,0,0,0,0,0,0,0,0,0.1034,0.1024,0.1052,0.1063,0.1064,0.1068,0.1068,0.1068,0.1078,0.1079,0.108,0.108,0.1089,0.1089,0.1088,0.1076,0,0,0.1088,0.1088,0,0,0,0,0,0,0,0,0.1034,0.1035,0.1061,0.1062,0.1064,0.1075,0.1061,0.1071,0.1078,0.107,0.108,0.108,0.1085,0.1085,0.1082,0.1077,0.1077,0.1088,0.1088,0.1088,0.1088,0,0,0,0,0,0,0,0.1033,0.1034,0.1055,0.1061,0.1063,0.1064,0.1066,0.1063,0.1072,0.1071,0.1072,0.1079,0.1085,0.1083,0.1083,0.1077,0.1088,0.1088,0.1088,0.1088,0.1108,0.1108,0,0,0,0,0,0,0.1037,0.1034,0.1055,0.1056,0.1053,0.1064,0.1066,0.1068,0.1072,0.1074,0.1078,0.1079,0.1083,0.1083,0.1083,0.1108,0.1088,0.1088,0.1087,0.1107,0.1108,0.1109,0,0,0,0,0,0,0.1036,0.1039,0.1054,0.1048,0.1051,0.1065,0.1066,0.1068,0.108,0.1078,0.108,0.109,0.1083,0.1083,0.1095,0.1107,0.1088,0.1087,0.1106,0.1107,0.1108,0.1133,0,0,0,0,0,0,0.1035,0.1038,0.1043,0.1048,0.1051,0.1065,0.1066,0.1068,0.1084,0.1085,0.1089,0.1089,0.1083,0.1096,0.1095,0.1106,0.1087,0.1106,0.1107,0.1108,0.1131,0.1135,0.1137,0,0,0,0,0,0.1034,0.1035,0.1043,0.1046,0.1056,0.1066,0.1067,0.1076,0.1084,0.1089,0.1095,0.109,0.1103,0.1096,0.1095,0.1107,0.1105,0.1106,0.1108,0.113,0.1134,0.1137,0,0,0,0,0,0,0.1025,0.1037,0.1045,0.1051,0.1063,0.1069,0.1075,0.1084,0.1092,0.1097,0.1095,0.1096,0.1112,0.1106,0.1099,0.1117,0.1104,0.1105,0.1121,0.1124,0.1127,0.1134,0.1087,0,0,0,0,0,0.1026,0.103,0.1045,0.1051,0.1058,0.107,0.1077,0.1086,0.1094,0.1099,0.1103,0.1108,0.1114,0.1118,0.112,0.1127,0.115,0.1135,0.1138,0.1141,0.1146,0.1201,0.121,0.1113,0.1113,0.1113,0,0,0.1024,0.1032,0.1035,0.1049,0.1059,0.1064,0.1075,0.1089,0.1096,0.1097,0.1108,0.112,0.1119,0.113,0.1137,0.1128,0.1181,0.1142,0.1145,0.1149,0.1204,0.1214,0.1222,0.1114,0.1114,0.1114,0,0,0.1016,0.1031,0.103,0.104,0.1061,0.1069,0.1077,0.1093,0.1104,0.1116,0.1124,0.1147,0.1146,0.1156,0.1158,0.1179,0.1198,0.118,0.1198,0.1252,0.126,0.1268,0.1315,0.1327,0.1179,0.1179,0.1179,0,0.1015,0.1014,0.1033,0.1034,0.1044,0.1072,0.1074,0.1087,0.1105,0.1124,0.1123,0.1159,0.1157,0.1184,0.1191,0.1186,0.1221,0.1183,0.1257,0.1265,0.1273,0.1319,0.1332,0.118,0.118,0.118,0.118,0,0.1001,0.1006,0.1008,0.1019,0.1032,0.1041,0.1064,0.1086,0.1107,0.1126,0.1168,0.1178,0.1206,0.1207,0.1201,0.1255,0.1265,0.1258,0.1249,0.1285,0.1331,0.1344,0.1182,0.1182,0.1182,0.1181,0,0,0.0986,0.0995,0.0998,0.1001,0.1026,0.1035,0.1059,0.1091,0.1122,0.1149,0.1191,0.1208,0.124,0.1245,0.1256,0.1294,0.1374,0.13,0.1303,0.135,0.1502,0.1376,0.1379,0.1389,0.1391,0.1393,0.1514,0,0.0972,0.0964,0.0979,0.0983,0.0983,0.1022,0.1044,0.1082,0.1123,0.1171,0.1211,0.125,0.1247,0.1273,0.1315,0.136,0.1409,0.1342,0.1457,0.1461,0.1348,0.1389,0.1251,0.1335,0.1526,0.1529,0.153,0,0.0951,0.095,0.0945,0.097,0.0977,0.0991,0.105,0.1074,0.1152,0.1187,0.1249,0.1289,0.1355,0.1345,0.1457,0.142,0.1468,0.1499,0.1504,0.1387,0.1359,0.133,0.1352,0.1552,0.155,0.1549,0.1547,0,0.0921,0.093,0.0926,0.0931,0.0962,0.0985,0.1015,0.1085,0.1118,0.1211,0.1252,0.1341,0.1387,0.1467,0.1534,0.1512,0.1657,0.1633,0.157,0.1563,0.1464,0.1442,0.1725,0.1725,0.1725,0.1724,0.1724,0,0.0892,0.0893,0.0915,0.0912,0.093,0.0966,0.101,0.1058,0.1134,0.1181,0.1264,0.1314,0.1422,0.1512,0.157,0.1608,0.1695,0.1583,0.1586,0.1465,0.1443,0.164,0.1628,0.1729,0.1728,0.1727,0.1726,0,0.0856,0.0867,0.0867,0.0898,0.0913,0.0929,0.0991,0.1025,0.1103,0.1171,0.1204,0.1316,0.1428,0.1534,0.1665,0.1631,0.1695,0.1693,0.1535,0.1513,0.1559,0.1548,0.1626,0.1622,0.1619,0.1617,0.1615,0,0.0832,0.0825,0.085,0.0856,0.0871,0.0903,0.0929,0.1002,0.1039,0.1162,0.1189,0.1321,0.1375,0.1506,0.1518,0.1592,0.1687,0.1476,0.1379,0.1554,0.155,0.1543,0.1536,0.1283,0.1279,0.1275,0.1272,0,0.0789,0.0805,0.0806,0.0816,0.0836,0.0854,0.0898,0.0918,0.1012,0.1068,0.1146,0.1196,0.1291,0.1278,0.1344,0.1362,0.1441,0.1393,0.1667,0.1293,0.123,0.1226,0.1231,0.1238,0.1242,0.1244,0.1246,0.1247,0.0765,0.0758,0.0767,0.0775,0.0794,0.0807,0.0813,0.0855,0.0897,0.0953,0.1031,0.1048,0.1092,0.1078,0.1111,0.1134,0.1208,0.1165,0.1179,0.1196,0.1097,0.1029,0.0983,0.0985,0.0986,0.0988,0.0989,0,0.0727,0.0729,0.0727,0.0734,0.0734,0.077,0.0791,0.0776,0.0798,0.0832,0.0859,0.076,0.0773,0.0878,0.0825,0.0807,0.0822,0.0815,0.0843,0.0874,0.0902,0.0791,0.0595,0.0595,0.0594,0.0593,0,0,0.0708,0.069,0.0687,0.0673,0.069,0.0682,0.0688,0.0661,0.0657,0.0579,0.0564,0.0639,0.0737,0.062,0.0638,0.0615,0.0738,0.0588,0.0893,0.095,0.0977,0.1081,0.094,0,0,0,0,0]},{"header":{"parameterUnit":"m.s-1","parameterCategory":2,"la1":30.2991,"la2":30.254,"lo1":-89.0895,"lo2":-89.0444,"dy":0.0017,"dx":0.0017,"nx":28,"ny":28,"refTime":"2025-02-02T09:00:00:Z","depth":"2","parameterNumber":3,"parameterNumberName":"V-component_of_CURRENTS"},"data":[0,0,0,0,0,0,0,0,0,0,0,0,0,0,0,0,0,0,0,0,0,0,0,0,0,0,0,0,0,0,0,0,0,0,0,0,0,0,0,0,0,0,0,0,0,0,0,0,0,0,0,0,0,0,0,0,0,0,0.0056,0.0056,0,0.0044,0.0044,0.0043,0.0024,0.0024,0.0023,0.0023,-0.0007,-0.0008,-0.0008,0,0,0,0,0,0,0,0,0,0,0,0,0,0.0056,0.0056,0.0056,0.0056,0.0056,0.0044,0.0044,0.0043,0.0024,0.0023,0.0023,0.0023,-0.0007,-0.0008,-0.0008,0,0,0,0,0,0,0,0,0,0,0,0,0,0.0051,0.0056,0.0056,0.0044,0.0043,0.0044,0.0044,0.0043,0.0024,0.0023,0.0023,0.0022,-0.0007,-0.0008,-0.0008,0.0,0,0,-0.001,-0.001,0,0,0,0,0,0,0,0,0.0052,0.0052,0.0046,0.0045,0.0044,0.0034,0.0032,0.0028,0.0024,0.0032,0.0023,0.0022,0.0005,0.0003,0.0004,-0.0001,-0.0002,-0.001,-0.0011,-0.0011,-0.0011,0,0,0,0,0,0,0,0.0052,0.0052,0.0052,0.0046,0.0044,0.0036,0.0035,0.0031,0.0022,0.0031,0.003,0.0027,0.0004,0.0004,0.0003,-0.0003,-0.001,-0.0011,-0.0011,-0.0011,-0.0011,-0.0011,0,0,0,0,0,0,0.0053,0.0052,0.0052,0.0052,0.0045,0.0037,0.0036,0.0038,0.0023,0.002,0.0028,0.0026,0.0006,0.0003,0.0001,0.0008,-0.0011,-0.0011,-0.0012,-0.0011,-0.0011,-0.0011,0,0,0,0,0,0,0.0054,0.0054,0.0053,0.0051,0.005,0.0038,0.0041,0.0038,0.0034,0.002,0.0017,0.0026,0.0005,0.0002,0.0,0.0006,-0.0012,-0.0012,-0.0012,-0.0011,-0.0011,0.0022,0,0,0,0,0,0,0.0054,0.0054,0.0057,0.0051,0.005,0.0057,0.0041,0.0039,0.0034,0.0032,0.0017,0.0014,0.0004,0.0002,-0.0,0.0005,-0.0013,-0.0012,-0.0012,-0.0011,0.0021,0.0024,0.0027,0,0,0,0,0,0.0054,0.0062,0.0058,0.0058,0.0055,0.0058,0.0057,0.0046,0.0034,0.0039,0.0028,0.0014,0.0004,0.0002,-0.0001,0.0005,-0.0013,-0.0012,-0.0011,0.0019,0.0023,0.0027,0,0,0,0,0,0,0.006,0.006,0.0056,0.0062,0.0061,0.0054,0.0056,0.0047,0.0043,0.0039,0.0022,0.0019,0.0018,0.0008,0.0005,0.0007,-0.0007,-0.0007,0.0016,0.002,0.0023,0.0031,-0.0013,0,0,0,0,0,0.0064,0.0072,0.0068,0.0074,0.0074,0.0065,0.0064,0.0057,0.0051,0.0048,0.0037,0.0027,0.0021,0.0018,0.0012,0.0015,0.0011,0.0016,0.002,0.0022,0.0027,0.0021,0.0024,-0.0008,-0.0008,-0.0008,0,0,0.0066,0.0068,0.0071,0.0076,0.0073,0.0083,0.0063,0.0065,0.0071,0.0046,0.0051,0.0037,0.0024,0.0027,0.0026,0.002,0.0031,0.0023,0.0026,0.0029,0.0022,0.0025,0.0028,-0.0007,-0.0007,-0.0007,0,0,0.0079,0.0078,0.0091,0.0096,0.0097,0.0094,0.0095,0.009,0.0086,0.0089,0.0072,0.0064,0.0055,0.005,0.0045,0.0062,0.0046,0.0055,0.0077,0.0072,0.0074,0.0076,0.0087,0.009,0.0057,0.0057,0.0057,0,0.0079,0.01,0.0094,0.011,0.0119,0.0101,0.0119,0.0115,0.0109,0.0115,0.0094,0.0086,0.0068,0.0078,0.0077,0.0069,0.0066,0.0065,0.0076,0.0078,0.0079,0.009,0.0093,0.0059,0.0059,0.0059,0.0058,0,0.0105,0.0123,0.0131,0.0149,0.0156,0.0168,0.0165,0.0169,0.0157,0.0156,0.0157,0.0132,0.0127,0.0117,0.0098,0.0104,0.0099,0.008,0.0068,0.0085,0.0095,0.0097,0.0061,0.0061,0.006,0.006,0,0,0.0097,0.0142,0.0144,0.0171,0.018,0.0194,0.0205,0.0221,0.0242,0.0217,0.024,0.0208,0.0189,0.0181,0.0155,0.0143,0.0147,0.0113,0.0112,0.0127,0.0145,0.0133,0.0134,0.0124,0.0125,0.0125,0.0152,0,0.0118,0.0169,0.0179,0.0226,0.0255,0.0253,0.0273,0.0283,0.0283,0.0301,0.0268,0.0275,0.0215,0.0213,0.0188,0.0162,0.0152,0.0142,0.0124,0.0124,0.0112,0.0135,0.0111,0.0132,0.0154,0.0154,0.0155,0,0.0139,0.0176,0.0228,0.0289,0.03,0.0317,0.0358,0.0374,0.0388,0.0389,0.0377,0.0355,0.0334,0.0278,0.0234,0.0228,0.0186,0.0159,0.0159,0.0137,0.0115,0.0115,0.0135,0.0158,0.0158,0.0158,0.0157,0,0.0154,0.0212,0.026,0.0278,0.0333,0.0352,0.0373,0.0398,0.0429,0.0443,0.0467,0.0432,0.0423,0.0361,0.0294,0.0262,0.0256,0.0208,0.0163,0.0163,0.0134,0.0131,0.0178,0.0178,0.0178,0.0178,0.0178,0,0.0182,0.0221,0.0271,0.03,0.0359,0.0381,0.0437,0.0455,0.0492,0.0545,0.0507,0.0544,0.0438,0.042,0.0339,0.0272,0.0291,0.0177,0.0168,0.0147,0.0144,0.0153,0.015,0.0179,0.0179,0.0179,0.0179,0,0.0197,0.0228,0.029,0.035,0.0369,0.0407,0.0474,0.0526,0.0548,0.0615,0.0623,0.0628,0.0607,0.0522,0.0446,0.0342,0.0278,0.025,0.0241,0.0229,0.0175,0.0173,0.019,0.019,0.019,0.0189,0.0189,0,0.0215,0.0248,0.0319,0.0357,0.0383,0.0442,0.0494,0.054,0.0603,0.0679,0.0727,0.0728,0.0744,0.064,0.0469,0.0341,0.0331,0.0231,0.015,0.0186,0.0176,0.0174,0.0173,0.0134,0.0133,0.0133,0.0132,0,0.025,0.0266,0.0316,0.039,0.0448,0.0525,0.0601,0.0661,0.0732,0.0801,0.0898,0.0915,0.0798,0.0654,0.0464,0.0367,0.0241,0.0215,0.0271,0.013,0.0134,0.0123,0.0124,0.0128,0.0129,0.0129,0.0129,0.0129,0.0267,0.0306,0.0365,0.0436,0.0505,0.0604,0.0682,0.078,0.0892,0.1007,0.1004,0.1007,0.081,0.0546,0.0403,0.023,0.022,0.013,0.0131,0.0133,0.0116,0.0119,0.0109,0.0109,0.011,0.011,0.011,0,0.0295,0.0341,0.0414,0.0508,0.0595,0.0615,0.0758,0.0864,0.1013,0.1067,0.1126,0.0903,0.074,0.0558,0.0272,0.0103,0.0084,0.0079,0.0074,0.0078,0.0081,0.0062,0.0041,0.0041,0.0041,0.0041,0,0,0.0316,0.0385,0.043,0.0572,0.0632,0.0767,0.0852,0.1004,0.1082,0.1141,0.1094,0.1028,0.0757,0.0536,0.0326,0.0192,0.0183,0.0171,0.0234,0.0257,0.0263,0.0108,0.0083,0,0,0,0,0]}],[{"header":{"parameterUnit":"m.s-1","parameterCategory":2,"la1":30.2991,"la2":30.254,"lo1":-89.0895,"lo2":-89.0444,"dy":0.0017,"dx":0.0017,"nx":28,"ny":28,"refTime":"2025-02-02T09:00:00:Z","depth":"4","parameterNumber":2,"parameterNumberName":"U-component_of_CURRENTS"},"data":[0,0,0,0,0,0,0,0,0,0,0,0,0,0,0,0,0,0,0,0,0,0,0,0,0,0,0,0,0,0,0,0,0,0,0,0,0,0,0,0,0,0,0,0,0,0,0,0,0,0,0,0,0,0,0,0,0,0,-0.0003,-0.0003,0,0.005,0.0051,0.0052,0.0111,0.0112,0.0113,0.0113,0.0204,0.0206,0.0208,0,0,0,0,0,0,0,0,0,0,0,0,0,-0.0032,-0.0031,-0.0003,-0.0003,-0.0002,0.005,0.0051,0.0052,0.0111,0.0112,0.0113,0.0114,0.0204,0.0206,0.0208,0,0,0,0,0,0,0,0,0,0,0,0,0,-0.0003,-0.0031,-0.0003,0.0034,0.0037,0.005,0.0051,0.0052,0.0111,0.0112,0.0113,0.0114,0.0203,0.0206,0.0208,0.0198,0,0,0.0215,0.0216,0,0,0,0,0,0,0,0,-0.0004,-0.0002,0.0028,0.0031,0.0035,0.0075,0.0074,0.0103,0.011,0.0083,0.0113,0.0115,0.0163,0.0169,0.0176,0.0202,0.0206,0.0216,0.0217,0.0218,0.0219,0,0,0,0,0,0,0,-0.0007,-0.0004,0.0018,0.0028,0.0033,0.0055,0.0061,0.008,0.0116,0.0085,0.009,0.0095,0.0166,0.0174,0.0179,0.0207,0.0216,0.0218,0.0219,0.022,0.0308,0.0308,0,0,0,0,0,0,-0.0016,-0.0006,0.0017,0.002,0.0018,0.0055,0.0061,0.0061,0.0115,0.0125,0.0094,0.0098,0.0169,0.0176,0.0182,0.0251,0.0218,0.022,0.0222,0.0307,0.0308,0.0309,0,0,0,0,0,0,-0.0017,-0.0015,0.0014,0.0009,0.0014,0.0054,0.0054,0.0062,0.0102,0.0121,0.0132,0.013,0.017,0.0179,0.0227,0.0252,0.0222,0.0224,0.0306,0.0307,0.0308,0.0339,0,0,0,0,0,0,-0.0018,-0.0016,-0.0004,0.0008,0.0014,0.0037,0.0053,0.0062,0.0101,0.0107,0.0155,0.0163,0.0172,0.0224,0.023,0.0255,0.0226,0.0305,0.0306,0.0308,0.0337,0.0341,0.0344,0,0,0,0,0,-0.002,-0.0016,-0.0004,0.0,0.0024,0.0037,0.0043,0.0076,0.0102,0.0118,0.0156,0.0163,0.0238,0.0227,0.0234,0.026,0.0304,0.0306,0.0308,0.0335,0.034,0.0344,0,0,0,0,0,0,-0.0018,-0.0009,0.0005,0.0013,0.0032,0.0048,0.007,0.0091,0.0134,0.0155,0.0176,0.0186,0.0235,0.0242,0.0229,0.0289,0.0271,0.0275,0.0289,0.0294,0.0298,0.0299,0.0228,0,0,0,0,0,-0.0015,-0.0008,0.0005,0.0017,0.0029,0.0056,0.0074,0.0096,0.0126,0.0148,0.0185,0.0219,0.0241,0.0266,0.0287,0.0323,0.0305,0.0343,0.0347,0.035,0.0356,0.0352,0.0355,0.0315,0.0315,0.0315,0,0,-0.001,-0.0003,0.0002,0.0019,0.004,0.0058,0.0071,0.0105,0.0132,0.015,0.0216,0.0237,0.0253,0.0293,0.0315,0.0308,0.0349,0.0353,0.0355,0.0359,0.0354,0.0358,0.0361,0.0316,0.0316,0.0316,0,0,-0.0007,0.001,0.0018,0.0034,0.0067,0.0081,0.0097,0.0135,0.0168,0.022,0.0237,0.0273,0.0325,0.0333,0.0342,0.038,0.0367,0.0395,0.0423,0.0419,0.0422,0.0424,0.0387,0.0386,0.04,0.04,0.0401,0,0.0006,0.0013,0.0025,0.004,0.0061,0.0094,0.0117,0.0146,0.02,0.023,0.0251,0.0322,0.0338,0.0367,0.0385,0.0389,0.0378,0.0403,0.0423,0.0425,0.0428,0.0389,0.0387,0.0402,0.0402,0.0402,0.0402,0,0.0007,0.0029,0.0038,0.0066,0.0089,0.0116,0.015,0.0194,0.0244,0.0273,0.0336,0.036,0.0403,0.041,0.0415,0.0441,0.0423,0.0424,0.0409,0.0433,0.0391,0.0388,0.0405,0.0404,0.0403,0.0403,0,0,-0.0,0.0033,0.0043,0.0065,0.0111,0.0127,0.0178,0.0225,0.026,0.0327,0.037,0.0417,0.0446,0.0457,0.0466,0.0467,0.0464,0.0464,0.0463,0.0422,0.0439,0.0419,0.0414,0.0478,0.0478,0.0478,0.0395,0,0.0008,0.0034,0.0054,0.0098,0.0117,0.0163,0.02,0.025,0.03,0.0348,0.0389,0.0437,0.0458,0.0486,0.0494,0.0476,0.0465,0.0486,0.0425,0.0423,0.04,0.0414,0.048,0.0393,0.0392,0.0392,0.0392,0,0.0005,0.0026,0.0063,0.0114,0.0129,0.0164,0.0231,0.027,0.0333,0.0375,0.0434,0.0466,0.05,0.0506,0.0496,0.0515,0.0486,0.0461,0.0457,0.043,0.0401,0.0369,0.0387,0.0388,0.0388,0.0388,0.0389,0,-0.0017,0.0035,0.0067,0.0085,0.0142,0.0183,0.0228,0.029,0.0326,0.0401,0.0428,0.048,0.0505,0.05,0.0469,0.0496,0.042,0.0443,0.0386,0.0382,0.0409,0.0407,0.0419,0.0419,0.0419,0.042,0.042,0,-0.0024,0.0004,0.0066,0.0082,0.0128,0.0182,0.024,0.0286,0.0349,0.0375,0.0449,0.0455,0.051,0.048,0.0457,0.0406,0.0412,0.0389,0.0369,0.042,0.0421,0.0405,0.0405,0.0416,0.0417,0.0418,0.0418,0,-0.0056,-0.0016,0.0017,0.0088,0.0116,0.0155,0.0244,0.0274,0.0343,0.0372,0.0402,0.0445,0.0429,0.0425,0.0387,0.0381,0.033,0.0296,0.0315,0.0296,0.0298,0.03,0.0263,0.0261,0.026,0.026,0.0259,0,-0.0069,-0.0056,0.0009,0.0034,0.0075,0.0143,0.0181,0.0267,0.0289,0.0339,0.033,0.0352,0.037,0.0295,0.0297,0.0255,0.0251,0.0226,0.0317,0.0303,0.0287,0.029,0.0294,0.0257,0.0257,0.0257,0.0257,0,-0.0102,-0.0078,-0.0057,-0.001,0.0039,0.0082,0.0142,0.0163,0.0239,0.0286,0.029,0.0309,0.0274,0.0276,0.0239,0.0202,0.0262,0.0217,0.0221,0.0306,0.0297,0.0282,0.0286,0.0253,0.0254,0.0254,0.0254,0,-0.013,-0.013,-0.0101,-0.0053,-0.0012,0.0021,0.0066,0.0109,0.0153,0.0228,0.0204,0.0222,0.0251,0.0239,0.0181,0.0179,0.021,0.0231,0.0235,0.0238,0.0275,0.0262,0.019,0,0,0,0,0,-0.0154,-0.0157,-0.0138,-0.0094,-0.0057,-0.0027,0.003,0.0074,0.0139,0.0143,0.0197,0.0172,0.0182,0.0171,0.0168,0.0155,0.0185,0.015,0.0205,0.0234,0.0238,0.0287,0,0,0,0,0,0,-0.0175,-0.0173,-0.0161,-0.0136,-0.0109,-0.0074,-0.0035,0.001,0.0027,0.0098,0.0096,0.0159,0.0149,0.0174,0.0159,0.0159,0.0194,0.0166,0.0166,0.0232,0.0236,0.0239,0.029,0,0,0,0,0]},{"header":{"parameterUnit":"m.s-1","parameterCategory":2,"la1":30.2991,"la2":30.254,"lo1":-89.0895,"lo2":-89.0444,"dy":0.0017,"dx":0.0017,"nx":28,"ny":28,"refTime":"2025-02-02T09:00:00:Z","depth":"4","parameterNumber":3,"parameterNumberName":"V-component_of_CURRENTS"},"data":[0,0,0,0,0,0,0,0,0,0,0,0,0,0,0,0,0,0,0,0,0,0,0,0,0,0,0,0,0,0,0,0,0,0,0,0,0,0,0,0,0,0,0,0,0,0,0,0,0,0,0,0,0,0,0,0,0,0,0.0203,0.0203,0,0.0173,0.0172,0.0172,0.0148,0.0148,0.0148,0.0148,0.0103,0.0102,0.0101,0,0,0,0,0,0,0,0,0,0,0,0,0,0.0211,0.0211,0.0203,0.0203,0.0203,0.0173,0.0172,0.0172,0.0148,0.0148,0.0148,0.0148,0.0103,0.0102,0.01,0,0,0,0,0,0,0,0,0,0,0,0,0,0.0195,0.0211,0.0203,0.0189,0.0187,0.0173,0.0172,0.0172,0.0148,0.0148,0.0148,0.0148,0.0104,0.0102,0.01,0.0091,0,0,0.0095,0.0094,0,0,0,0,0,0,0,0,0.0196,0.0194,0.0191,0.019,0.0188,0.0166,0.0159,0.0145,0.0148,0.0161,0.0148,0.0148,0.0124,0.012,0.0112,0.0089,0.0087,0.0095,0.0094,0.0093,0.0093,0,0,0,0,0,0,0,0.0197,0.0195,0.0189,0.0191,0.0189,0.0174,0.0171,0.0156,0.0142,0.016,0.0159,0.0158,0.0123,0.0114,0.0111,0.0087,0.0095,0.0093,0.0092,0.0092,-0.0005,-0.0007,0,0,0,0,0,0,0.0206,0.0197,0.019,0.0188,0.0194,0.0174,0.0171,0.0171,0.0142,0.0138,0.0158,0.0157,0.0117,0.0113,0.011,0.0064,0.0093,0.0091,0.009,-0.0004,-0.0005,-0.0007,0,0,0,0,0,0,0.0206,0.0206,0.0191,0.0193,0.0191,0.0174,0.0174,0.0171,0.0153,0.0141,0.0137,0.0143,0.0117,0.0112,0.0078,0.0063,0.0091,0.0089,-0.0002,-0.0004,-0.0006,-0.0006,0,0,0,0,0,0,0.0207,0.0206,0.0203,0.0194,0.0191,0.0175,0.0175,0.0171,0.0154,0.0152,0.0127,0.0123,0.0117,0.008,0.0076,0.0061,0.0088,0.0,-0.0003,-0.0006,-0.0004,-0.0008,-0.0011,0,0,0,0,0,0.0207,0.0204,0.0203,0.0202,0.0189,0.0175,0.0171,0.0158,0.0154,0.0141,0.0119,0.0123,0.0059,0.0078,0.0073,0.0058,0.0002,-0.0002,-0.0005,-0.0002,-0.0007,-0.0011,0,0,0,0,0,0,0.0201,0.0201,0.02,0.0196,0.0183,0.0171,0.016,0.0152,0.0125,0.0119,0.0108,0.0102,0.0063,0.0055,0.0077,0.0017,0.0029,0.0025,0.0033,0.0028,0.0025,0.0052,0.0086,0,0,0,0,0,0.0201,0.0199,0.0194,0.0187,0.0183,0.0169,0.016,0.015,0.0131,0.0119,0.0098,0.0072,0.0046,0.0034,0.0008,-0.0018,-0.0016,-0.0035,-0.0039,-0.0041,-0.0026,-0.0045,-0.0048,-0.0019,-0.0018,-0.0018,0,0,0.0197,0.0197,0.0195,0.0186,0.0176,0.0164,0.0162,0.0144,0.013,0.0118,0.0082,0.0057,0.0033,-0.0001,-0.0018,-0.0007,-0.0053,-0.0046,-0.0048,-0.003,-0.0049,-0.0051,-0.0053,-0.0021,-0.002,-0.002,0,0,0.0188,0.0187,0.0182,0.0173,0.0159,0.0152,0.0145,0.0124,0.0109,0.0077,0.0058,0.0027,-0.0012,-0.0031,-0.0043,-0.0083,-0.0076,-0.01,-0.0087,-0.0107,-0.0109,-0.011,-0.0117,-0.0119,-0.0096,-0.0096,-0.0096,0,0.0183,0.0179,0.0175,0.0166,0.016,0.0146,0.0136,0.0117,0.0084,0.0073,0.0063,-0.0,-0.0023,-0.0053,-0.0068,-0.0088,-0.0092,-0.0064,-0.0109,-0.011,-0.0111,-0.0118,-0.012,-0.0096,-0.0096,-0.0096,-0.0096,0,0.0171,0.0166,0.016,0.0149,0.0138,0.0125,0.0109,0.0088,0.007,0.0055,0.0014,-0.002,-0.0045,-0.0072,-0.0077,-0.0104,-0.0103,-0.0113,-0.0088,-0.0114,-0.012,-0.0122,-0.0097,-0.0097,-0.0097,-0.0096,0,0,0.0172,0.0157,0.0155,0.0151,0.013,0.0123,0.0098,0.0081,0.0071,0.0031,0.0015,-0.0035,-0.0041,-0.0055,-0.0077,-0.0097,-0.0117,-0.0102,-0.0103,-0.0091,-0.015,-0.0136,-0.0137,-0.0133,-0.0133,-0.0133,-0.0151,0,0.0166,0.0155,0.0146,0.0131,0.0125,0.011,0.0095,0.0075,0.0053,0.003,-0.0001,-0.0022,-0.0038,-0.0044,-0.0069,-0.0112,-0.0122,-0.011,-0.0141,-0.0142,-0.0112,-0.0139,-0.0134,-0.0153,-0.0153,-0.0154,-0.0154,0,0.0158,0.0156,0.0148,0.0135,0.0132,0.0128,0.0113,0.0099,0.007,0.0055,0.0033,0.0009,-0.0021,-0.0032,-0.009,-0.0081,-0.0102,-0.0134,-0.0136,-0.0118,-0.0132,-0.0124,-0.0158,-0.0157,-0.0157,-0.0157,-0.0157,0,0.0167,0.0153,0.0154,0.0149,0.0135,0.0138,0.0137,0.0115,0.0111,0.009,0.0078,0.0036,0.0018,-0.0024,-0.0082,-0.008,-0.0152,-0.0159,-0.0165,-0.0164,-0.0167,-0.0165,-0.0183,-0.0183,-0.0183,-0.0183,-0.0183,0,0.0161,0.0157,0.0168,0.0168,0.018,0.0167,0.0181,0.0166,0.0155,0.0143,0.0112,0.0079,0.002,-0.0033,-0.0078,-0.013,-0.0143,-0.0157,-0.0168,-0.017,-0.0168,-0.0169,-0.0167,-0.0184,-0.0184,-0.0183,-0.0183,0,0.0153,0.0158,0.0165,0.0176,0.0186,0.0202,0.0225,0.0231,0.0217,0.0199,0.0199,0.0121,0.0054,-0.0011,-0.0091,-0.0118,-0.0173,-0.0183,-0.0174,-0.0185,-0.0168,-0.0166,-0.0181,-0.0181,-0.018,-0.018,-0.018,0,0.0139,0.0147,0.0183,0.0208,0.022,0.0252,0.0274,0.0273,0.0262,0.0209,0.0182,0.0127,0.0072,-0.0027,-0.01,-0.0166,-0.0173,-0.0185,-0.0175,-0.0158,-0.0168,-0.0167,-0.0166,-0.018,-0.0179,-0.0179,-0.0179,0,0.012,0.0147,0.0161,0.0225,0.0264,0.0292,0.0308,0.0305,0.0282,0.0267,0.0191,0.014,0.0057,-0.0025,-0.0069,-0.0126,-0.0174,-0.0183,-0.0183,-0.0174,-0.0157,-0.0167,-0.0166,-0.0178,-0.0179,-0.0179,-0.0179,0,0.0112,0.0133,0.018,0.0228,0.029,0.0316,0.0321,0.0307,0.0302,0.0233,0.0202,0.012,0.0068,-0.0007,-0.0069,-0.0103,-0.0105,-0.0105,-0.011,-0.0111,-0.0088,-0.0057,-0.0052,0,0,0,0,0,0.0105,0.0134,0.0179,0.0232,0.0296,0.0332,0.0333,0.0325,0.0293,0.0256,0.0236,0.0163,0.0081,0.0015,-0.001,-0.0067,-0.0118,-0.01,-0.012,-0.0173,-0.0174,-0.0158,0,0,0,0,0,0,0.0102,0.0146,0.0172,0.0236,0.0282,0.0337,0.0351,0.032,0.0284,0.0248,0.0198,0.0174,0.0082,0.0111,-0.0003,-0.0021,-0.0034,-0.0145,-0.0146,-0.0173,-0.0174,-0.0174,-0.0158,0,0,0,0,0]}]]